User: anonymous   Login
Location: Unspecified
(0.0000°N, 0.0000°E)
Time: 10:50:56
(UTC+00:00)
Language:

XMM - Orbit

View from above orbital plane
View from above orbital plane
View from above satellite
View from above satellite

Ground track
Ground track

The orbit data is extracted from the following two-line orbital elements,

1 25989U 99066A   18201.53434910 -.00000599  00000-0  00000+0 0  9997
2 25989  70.3393 345.2166 7959356  95.8858   0.3151  0.50141918 22883
Epoch (UTC): 20 July 2018 12:49:27
Eccentricity: 0.7959356
inclination: 70.3393°
perigee height: 7279 km
apogee height: 113817 km
right ascension of ascending node: 345.2166°
argument of perigee: 95.8858°
revolutions per day: 0.50141918
mean anomaly at epoch: 0.3151°
orbit number at epoch: 2288

The dashed part of the orbit path shows where the satellite is in the earth's shadow,  

DLR